Location: Acton
(51.4942°N, 0.2232°W)
Time: 12:51:19
(UTC+00:00)

Cosmos 2082 Rocket - Pass Details

Date: 18 September 2020
Orbit: 834 x 853 km, 71.0° (Epoch: 25 October)

Event Time Altitude Azimuth Distance (km) Brightness Sun altitude
Rises 22:21:54 0° 327° (NNW) 3,394 6.4 -33.6°
Reaches altitude 10° 22:24:23 10° 323° (NW) 2,456 5.4 -33.7°
Enters shadow 22:28:07 39° 298° (WNW) 1,247 3.3 -34.0°
